Preview of NWS' New Version of Forecast
This preview is not operational and should not be used for support decisions.

Regional Weather Roundup (RWR)

Issued by National Weather Service (NWS)

                            
000
ASCA42 TJSJ 172210
RWRPR 
PUERTO RICO/U.S. VIRGIN ISLANDS HOURLY WEATHER ROUNDUP
NATIONAL WEATHER SERVICE SAN JUAN PR
600 PM AST TUE SEP 17 2019

PRZ001>002-007>008-010-172300-
PUERTO RICO
  
CITY           SKY/WX    TMP DP  RH WIND       PRES   REMARKS
SAN JUAN LMM   MOCLDY    88  77  70 E15       29.87R HX 100           
AGUADILLA      CLEAR     86  73  66 CALM      29.88S HX  93           
CEIBA          CLOUDY    84  75  74 SE12      29.90R HX  92           
$$

VIZ001>002-172300-
U.S. VIRGIN ISLANDS
  
CITY           SKY/WX    TMP DP  RH WIND       PRES   REMARKS
CHARLOTTE AMA  PTCLDY    86  75  70 E12       29.87R HX  95           
CHRISTIANSTED  CLEAR     84  75  74 SE16      29.88R HX  92           
$$

HOURLY WEATHER ROUNDUP FOR THE NEWS MEDIA
  
CITY           SKY/WX    TMP DP  RH WIND       PRES   REMARKS
ORLANDO        FAIR      91  59  33 NE12      29.91S HX  90           
NEW YORK       FAIR      75  33  21 N16G25    30.10R                  
NEWARK         FAIR      75  40  28 N12       30.08S                  
CHICAGO        PTSUNNY   76  65  68 E9        30.11S                  
HARTFORD       FAIR      63  51  65 NE8       30.12S                  
BOSTON         FAIR      64  49  57 E12       30.14S                  
DALLAS         MOSUNNY   92  66  42 E9G18     29.90F HX  94           
PHILADELPHIA   FAIR      78  45  30 N12G20    30.08S                  
LOS ANGELES    MOSUNNY   77  62  59 W13       29.93F                  
WASHINGTON DC  FAIR      78  57  48 NE10      30.08R